Wind_Speed
31 31 31 30 30 29 29 28 28 28 28 29 28 28 28 27 26 25 24 23 23 22 21 20 19 17 16 15 14 12 11 8 7 5 3 2 1 1 2 3 4 4 4 5 5 5 5 6 6 7 8 8 9 10 10 10 11 11 12 12 12 12 13 13 13 13 13 13 14
31 31 31 31 31 31 30 28 26 26 27 28 30 30 29 28 26 25 24 24 23 22 21 20 18 16 15 13 11 10 8 7 5 3 1 1 2 3 3 4 4 4 4 4 4 5 5 5 6 7 8 8 9 9 10 10 10 10 11 11 12 12 12 12 13 13 13 13 13
32 32 33 32 32 30 28 26 27 28 29 30 30 30 29 27 26 26 25 24 23 22 21 20 17 15 13 11 9 8 7 6 4 3 1 1 1 2 2 3 3 4 4 4 4 5 5 6 6 7 8 8 9 9 10 10 10 10 10 11 11 11 11 11 11 12 12 12 12
33 33 33 32 31 30 29 30 31 32 32 31 31 30 29 28 27 26 25 24 23 21 20 18 16 14 12 10 9 8 7 5 4 3 3 2 2 2 3 3 3 3 3 4 4 4 5 6 6 7 7 8 9 9 9 9 9 9 9 10 9 9 9 9 9 9 10 10 10
33 33 32 31 31 31 31 32 33 34 34 33 32 31 29 28 28 27 26 24 22 21 19 17 16 14 12 11 9 7 5 4 4 4 4 3 3 3 3 3 2 2 3 3 3 4 5 5 6 7 7 8 8 8 8 8 9 9 9 9 9 9 9 9 8 8 8 9 9
33 32 32 32 32 32 32 33 34 35 34 33 32 31 30 29 28 27 26 24 22 21 19 17 16 14 12 10 9 8 6 4 4 4 4 3 3 3 3 2 2 2 3 3 3 4 5 5 6 7 7 8 8 9 9 9 9 9 10 10 10 9 9 9 9 8 8 9 9
33 33 33 34 35 34 33 33 34 34 34 33 33 32 31 30 29 27 26 24 22 20 18 16 14 13 11 10 10 8 7 6 5 5 4 4 3 3 3 3 3 3 3 3 4 4 5 6 6 7 7 8 8 9 9 9 10 10 10 10 10 10 10 10 9 9 9 9 9
34 35 35 36 36 35 33 32 33 33 33 34 34 34 33 31 29 27 25 23 21 19 17 15 14 13 11 10 9 8 7 7 6 5 5 5 4 3 3 3 3 3 4 4 5 5 6 6 6 7 7 8 8 8 8 9 9 10 10 11 11 11 11 11 10 10 10 10 10
36 36 36 36 35 33 32 32 33 35 36 36 36 34 32 30 28 26 24 22 20 18 16 15 14 12 10 8 8 8 8 8 7 5 5 5 4 4 3 3 3 4 4 4 4 5 5 6 6 6 6 7 7 7 7 7 8 8 9 10 10 10 10 11 10 10 10 10 10
36 36 36 34 33 32 32 33 35 37 38 37 36 33 31 29 26 25 23 21 19 18 16 14 11 9 7 7 8 8 8 7 6 5 4 3 3 2 2 2 2 2 2 3 3 4 4 5 5 6 6 7 7 8 8 8 8 8 9 9 9 10 10 11 11 11 11 11 11
36 35 34 32 32 33 34 35 37 38 38 36 34 32 30 28 26 24 22 20 19 17 14 11 8 7 7 8 7 6 5 5 4 3 2 2 1 1 1 1 1 1 1 2 3 4 4 5 5 6 7 7 8 8 9 9 9 9 10 10 10 10 11 11 11 11 12 12 12
35 33 31 31 32 33 35 35 35 36 35 34 32 31 29 27 25 23 21 18 17 14 11 9 8 8 7 7 6 5 5 4 4 4 4 4 3 3 2 2 1 1 1 2 3 4 4 5 6 6 7 8 8 9 9 9 10 10 11 11 11 11 12 12 12 12 12 12 12
32 30 28 29 31 34 35 34 33 33 32 32 31 30 28 26 23 21 19 16 14 11 10 9 9 8 8 7 7 7 6 6 5 5 4 4 3 2 2 2 1 1 2 3 3 4 5 5 6 7 8 8 9 9 9 10 10 11 11 11 12 12 12 13 13 13 13 13 13
28 26 26 28 31 34 34 33 31 31 31 30 30 28 26 24 22 19 17 14 12 11 10 10 10 9 9 9 8 8 7 6 5 4 4 3 2 2 1 1 2 2 3 4 4 5 5 6 7 8 8 9 9 10 10 10 10 11 11 11 11 12 12 13 13 13 13 14 14
25 24 25 29 32 33 33 32 30 30 29 29 28 26 25 23 21 18 15 14 13 12 11 11 11 10 9 9 8 7 6 5 4 4 3 2 2 1 2 2 3 3 3 4 5 6 6 7 7 8 8 9 10 10 11 11 11 11 11 12 12 13 13 14 14 14 14 14 14
23 23 26 29 31 32 31 30 29 28 28 27 26 24 23 22 18 16 14 14 13 13 12 11 11 10 9 8 7 6 5 4 3 3 3 3 3 3 3 3 3 3 3 4 5 6 7 7 8 8 9 10 11 11 12 12 12 13 13 13 14 14 15 15 15 15 14 14 14
24 25 28 30 32 31 30 29 28 28 27 26 24 22 21 18 16 14 14 14 14 13 12 11 10 9 8 7 6 5 4 4 4 4 4 4 4 3 3 2 2 3 4 5 6 6 7 8 9 9 10 11 11 12 12 13 13 14 14 14 14 14 15 15 15 15 15 14 15
25 26 28 30 31 31 30 30 29 28 26 25 23 20 18 15 14 15 15 14 14 13 12 11 9 8 8 7 6 6 6 6 6 5 5 4 3 2 2 2 3 4 4 5 6 7 7 8 9 10 10 11 12 12 12 12 13 14 14 14 14 14 15 15 15 15 15 15 16
26 27 28 29 30 30 30 30 28 27 25 23 21 19 16 15 15 15 15 14 13 13 12 11 10 9 9 8 8 7 7 6 6 5 4 3 2 2 2 3 4 4 5 5 6 7 7 8 8 9 9 10 10 11 11 12 12 13 13 13 13 13 14 15 15 16 16 17 17
26 27 28 29 30 30 30 29 27 26 24 22 20 18 17 16 15 15 15 14 13 12 11 11 11 10 10 9 8 7 6 6 5 4 4 3 3 3 3 4 5 5 5 6 6 7 7 8 7 7 7 8 8 9 10 11 12 12 13 12 12 11 12 13 13 14 14 15 16
26 27 28 30 31 30 29 28 26 25 23 22 20 19 18 17 16 16 15 14 13 12 12 12 11 11 10 9 8 7 6 6 5 5 5 4 4 4 5 5 5 5 6 6 6 6 7 7 7 8 9 9 10 10 11 12 13 14 15 14 14 13 13 13 12 12 12 12 13
26 27 29 30 31 30 29 27 26 24 23 22 20 20 19 18 17 15 14 14 13 13 12 12 11 11 10 9 8 7 7 7 6 6 6 6 5 5 6 5 5 5 5 5 5 5 6 7 9 10 11 12 12 13 13 14 15 15 16 17 17 17 17 16 16 15 14 14 14
27 28 30 31 31 30 29 27 26 24 23 22 21 20 19 18 16 15 15 14 14 13 13 12 11 10 10 9 9 8 8 7 7 7 6 6 6 6 6 5 5 4 4 4 3 4 6 8 9 10 11 12 12 13 13 14 14 15 16 16 17 18 18 18 18 17 17 16 16
27 28 29 30 31 30 28 27 26 24 23 22 21 20 18 17 16 16 15 15 15 14 13 12 11 11 10 10 9 9 8 8 7 7 7 6 6 6 6 5 4 4 3 2 2 4 6 8 9 10 10 10 11 11 12 12 13 13 14 15 16 17 17 18 18 18 18 18 18
28 30 31 31 30 28 27 26 25 24 22 21 20 19 18 17 17 16 16 15 15 14 13 12 12 11 10 10 9 9 8 8 7 7 6 6 6 6 5 5 4 4 3 2 3 6 8 9 10 10 10 10 10 11 11 11 12 13 13 14 14 15 16 16 17 17 18 18 18
30 31 31 29 27 26 26 24 23 22 21 20 19 18 17 17 17 17 16 15 14 13 13 12 12 11 11 10 9 9 8 7 7 6 6 6 5 5 5 5 5 4 3 4 5 8 9 10 10 10 10 10 10 11 12 12 12 13 13 13 13 13 14 14 15 15 16 16 17
31 31 29 27 26 25 24 23 21 20 20 19 18 18 18 17 17 16 16 15 14 13 12 12 12 11 11 10 9 8 7 7 6 6 5 5 5 5 5 5 4 3 3 4 6 8 9 10 10 10 10 10 11 12 13 13 14 14 14 14 14 14 14 14 14 14 15 15 15
30 29 27 26 24 23 22 21 20 20 19 19 18 18 18 17 17 16 15 15 14 13 12 11 11 10 9 9 8 8 7 7 6 6 5 6 6 5 5 5 4 4 3 4 6 8 9 10 11 11 11 11 12 13 14 14 15 15 15 15 15 14 14 14 14 13 13 13 13
28 27 25 24 23 22 21 21 20 20 19 19 18 18 18 17 16 15 14 13 13 12 11 11 10 9 9 8 8 8 7 7 7 6 6 6 6 6 6 6 6 6 6 8 10 11 11 11 11 11 12 12 13 13 14 14 14 15 15 15 15 14 13 13 13 13 12 12 12
26 25 24 23 22 21 21 20 20 19 19 18 18 18 17 16 15 15 14 13 12 11 11 10 10 9 9 9 9 8 8 7 7 7 7 7 7 7 7 7 7 8 10 12 13 13 13 13 12 12 13 13 13 13 14 14 14 14 14 14 14 14 14 14 14 14 14 13 13
24 24 23 22 21 21 20 19 19 19 18 18 17 17 16 15 15 14 13 13 12 12 11 11 10 10 10 9 9 9 8 7 7 7 7 7 7 7 7 7 8 10 12 14 15 14 14 13 13 13 14 14 14 14 14 14 14 14 14 14 14 14 15 15 15 15 15 15 14
23 23 22 22 21 20 20 19 19 18 18 17 16 15 15 14 13 13 13 12 12 12 11 11 11 10 10 10 9 9 8 7 7 7 7 7 8 8 8 8 9 11 13 15 15 15 14 14 14 14 15 15 14 13 13 13 14 14 14 14 15 15 15 15 15 15 14 14 14
23 22 22 21 21 20 20 19 19 18 17 16 15 15 14 14 13 13 13 13 12 12 12 11 11 11 10 10 9 8 7 7 7 8 8 8 8 8 8 8 9 11 13 15 15 15 14 14 14 15 15 15 14 13 13 13 13 14 14 13 14 14 14 14 14 14 13 13 13
22 22 21 21 21 21 20 20 19 18 17 16 15 15 14 14 14 13 13 13 13 12 12 12 11 11 10 9 8 8 8 8 8 9 9 9 9 9 8 8 9 11 13 14 15 14 14 15 15 15 16 15 14 12 12 12 12 12 12 12 12 12 12 13 12 12 12 12 13
22 22 21 21 21 21 20 20 19 18 17 16 15 15 15 14 14 13 13 13 13 13 12 12 11 11 10 9 8 8 9 9 9 9 10 9 9 9 8 8 9 11 13 15 15 15 15 15 15 16 16 14 13 12 11 11 11 12 12 12 12 11 11 11 11 11 11 11 12
22 22 22 22 21 21 20 19 18 17 16 16 16 16 15 14 14 13 13 13 13 13 13 12 11 11 10 10 9 9 10 10 10 10 10 10 9 9 8 8 9 11 13 15 15 15 15 15 16 16 15 14 12 11 11 11 11 11 11 11 11 11 11 11 11 11 10 10 11
22 22 22 22 21 20 19 18 17 16 16 17 17 16 15 14 14 13 13 13 13 13 13 12 11 11 10 10 10 10 10 10 10 10 10 10 9 8 8 8 9 11 13 15 15 15 15 15 16 16 15 14 12 11 11 11 11 11 11 11 11 11 11 11 11 10 10 10 11
22 22 22 22 21 19 18 17 17 17 18 18 17 16 15 14 14 13 13 13 13 13 13 12 12 11 10 10 10 11 11 10 11 10 10 9 9 8 8 8 9 11 12 14 14 15 15 16 16 16 16 14 13 12 11 11 11 11 11 11 11 11 11 11 11 11 11 11 11
22 22 22 21 20 19 18 18 18 18 18 18 17 16 15 14 14 13 13 13 13 13 13 13 12 12 11 11 11 11 11 11 11 11 10 9 9 8 8 8 9 10 11 12 14 15 16 16 16 16 16 15 13 12 11 11 11 11 11 11 11 11 11 11 11 11 11 11 12
22 21 21 20 19 19 19 19 19 19 18 17 17 16 15 15 14 14 14 14 14 13 13 13 13 12 12 11 11 11 11 11 10 10 10 9 8 8 8 8 8 9 10 12 14 15 16 17 17 17 17 17 14 12 11 11 11 11 11 12 12 12 12 12 12 12 11 12 13
21 21 20 20 20 20 20 20 19 18 18 17 17 16 16 15 15 14 14 14 14 14 13 13 13 12 12 11 11 10 10 10 9 9 9 9 8 8 8 8 8 9 10 12 15 16 18 18 18 18 18 17 15 13 12 11 11 11 12 12 12 12 12 12 12 12 11 12 13
Wind_Direction
148 148 146 145 143 140 138 137 139 138 136 133 133 132 130 129 128 128 128 126 124 123 122 122 123 124 126 128 128 129 130 131 133 138 147 157 181 222 243 245 249 254 256 258 259 260 262 263 264 264 264 263 263 263 263 263 264 264 263 263 263 264 264 264 264 264 265 266 266
146 145 143 140 138 135 134 134 136 135 132 131 129 128 127 126 125 124 123 121 120 119 117 116 116 117 119 122 125 127 126 124 122 127 152 216 242 251 252 249 249 249 247 245 247 249 252 255 258 260 262 262 262 263 263 263 263 263 264 263 263 264 265 265 265 265 266 266 266
142 141 140 137 135 133 133 134 131 128 126 124 124 124 124 123 122 121 119 119 118 117 114 112 112 113 115 118 121 122 121 116 111 109 120 172 211 228 233 233 236 240 244 246 250 253 255 257 260 262 263 264 264 264 264 264 264 264 264 264 264 264 264 263 263 263 263 263 264
138 137 136 135 133 132 131 129 126 124 122 121 121 122 121 121 119 117 116 116 115 114 113 114 114 114 115 116 116 116 117 118 120 127 143 163 182 198 211 218 225 234 244 252 257 259 260 261 261 262 263 264 264 264 264 265 265 266 266 266 266 266 265 263 262 261 260 260 261
134 134 133 131 130 129 128 127 124 123 122 122 121 119 118 116 115 114 113 112 110 111 114 117 117 117 117 115 113 111 112 123 149 162 167 173 188 200 208 213 221 234 245 253 258 261 262 262 261 261 262 263 263 263 264 266 268 269 270 270 269 269 268 267 265 262 261 260 261
129 129 128 127 127 126 125 125 124 123 123 122 120 117 113 112 111 111 110 110 110 114 117 119 118 117 115 111 105 100 99 111 145 159 164 172 184 190 194 198 212 228 241 249 255 259 262 264 263 263 264 265 266 265 265 267 270 271 271 271 270 269 269 269 268 267 265 263 263
125 124 123 123 124 124 123 123 122 122 120 118 115 112 110 108 109 110 111 113 115 117 118 118 117 114 110 105 99 97 102 118 139 152 161 168 172 175 180 191 205 221 235 248 255 261 264 266 267 268 269 269 269 269 269 270 270 270 271 270 269 268 269 270 270 270 270 269 268
120 120 120 120 121 122 122 121 119 117 114 111 109 108 107 108 109 111 112 114 115 116 118 117 114 110 106 103 105 115 128 139 145 154 163 169 174 182 193 204 217 230 244 255 263 269 272 272 271 271 273 273 273 273 273 272 270 270 269 270 270 269 270 271 273 273 273 273 271
116 116 117 118 120 120 120 118 116 113 109 107 106 106 108 109 111 112 112 111 113 114 114 111 107 104 104 110 127 143 154 159 159 163 171 179 190 202 214 227 238 250 261 269 276 281 283 282 278 274 273 273 273 273 273 273 273 272 271 270 271 271 271 271 273 273 274 274 273
114 114 116 117 118 119 117 114 112 109 107 106 106 108 110 111 112 111 110 110 109 107 104 101 100 103 115 134 152 163 170 176 181 186 194 204 215 228 245 259 268 280 290 293 295 294 290 287 281 275 272 271 272 274 276 278 279 279 277 275 273 272 272 271 271 271 271 271 271
114 115 116 118 118 117 114 109 107 106 106 107 108 109 110 110 109 108 108 106 102 98 96 97 106 122 139 154 164 172 178 184 187 183 171 152 132 108 92 81 46 355 325 310 303 297 291 285 279 277 276 277 278 280 282 283 284 283 282 279 277 276 275 273 271 270 270 270 270
114 116 118 119 117 114 109 106 104 104 106 107 108 108 107 106 106 105 104 100 96 95 100 113 127 138 146 150 152 150 147 142 139 133 127 120 113 106 97 86 70 20 323 307 301 295 290 287 283 281 281 280 281 281 283 284 284 284 283 281 280 278 276 275 273 271 271 270 270
115 118 119 118 115 110 107 104 103 104 105 106 105 104 104 103 103 102 99 95 96 102 114 127 134 137 135 133 132 131 130 128 128 128 128 127 122 111 89 60 29 340 317 306 299 294 291 288 285 284 283 283 282 281 281 281 280 280 279 279 279 277 275 273 272 270 269 269 270
118 121 120 116 111 108 105 103 102 103 103 103 103 103 102 102 101 98 95 96 103 114 124 131 134 132 130 132 133 132 131 130 128 128 124 119 110 91 57 17 351 332 317 307 300 297 295 291 288 286 286 285 283 282 280 279 277 275 274 274 275 274 271 268 266 263 262 263 265
120 120 116 111 107 104 103 102 101 102 102 102 103 103 102 101 98 97 99 107 116 124 131 134 134 134 135 137 136 135 133 130 131 127 117 98 72 44 21 4 351 336 322 310 304 299 295 291 289 288 286 285 283 281 279 277 273 270 269 268 268 268 266 262 259 255 254 254 256
118 114 110 106 103 101 101 101 101 102 102 103 104 104 102 99 99 103 112 121 128 132 134 135 136 139 142 143 142 141 137 129 121 108 87 66 50 36 24 12 354 335 318 308 303 298 295 293 291 290 289 288 286 285 282 278 276 273 271 268 265 264 263 261 259 257 255 254 253
111 107 104 102 101 100 101 102 103 104 105 106 105 103 100 100 107 118 127 134 136 135 133 133 134 136 138 137 134 129 118 100 84 72 65 57 50 40 25 3 334 313 307 306 304 301 299 299 299 299 298 296 294 292 289 288 286 285 282 277 272 269 268 268 267 266 265 264 262
104 102 100 100 100 101 102 104 105 105 106 106 103 100 101 109 121 131 136 139 138 135 131 130 129 127 121 113 104 95 86 79 73 69 65 60 54 40 13 342 317 307 307 309 309 308 307 306 306 305 304 302 300 298 296 295 292 291 289 285 281 279 279 279 278 276 274 272 271
102 101 100 100 101 102 104 105 105 105 104 103 101 102 109 121 131 135 136 134 134 132 129 126 121 113 105 97 92 88 85 84 83 80 73 66 54 33 6 347 333 325 322 321 318 317 315 311 307 304 303 302 300 299 300 300 298 297 297 294 290 287 286 284 282 278 276 274 271
102 102 102 102 103 104 104 105 104 103 102 101 104 109 117 125 131 130 127 125 125 125 123 118 111 103 98 96 96 95 94 96 96 89 78 64 49 33 17 4 351 344 338 334 329 324 321 317 314 313 313 313 312 311 311 310 309 309 310 310 307 302 296 291 285 280 277 275 272
102 102 103 104 105 104 104 104 104 103 103 105 110 115 120 122 123 122 122 121 120 117 114 109 105 103 102 104 106 105 100 96 91 83 72 59 46 35 26 18 5 355 348 344 337 332 329 330 331 333 332 329 325 320 316 313 310 308 308 309 309 308 307 306 303 300 297 295 291
103 104 104 105 105 104 104 104 104 104 106 110 114 118 119 119 120 121 120 119 116 112 108 105 104 105 105 106 105 102 96 89 81 74 64 53 43 34 28 22 11 1 353 347 339 334 331 331 330 330 328 323 319 315 312 310 307 305 303 302 302 304 305 306 307 308 309 310 310
106 105 105 104 105 105 105 105 105 107 109 113 116 119 120 121 122 121 120 117 114 111 108 107 107 107 107 104 100 96 90 83 75 67 59 49 40 32 26 19 10 360 351 342 333 333 333 331 328 326 324 320 317 314 311 308 305 303 300 299 298 299 300 300 301 303 304 305 306
108 106 105 103 103 103 104 105 107 109 111 114 118 120 122 122 121 119 117 114 112 111 110 111 110 109 106 101 96 91 85 79 72 64 55 46 37 30 23 12 359 349 345 348 344 343 341 339 336 333 330 326 322 318 314 310 307 304 301 299 298 297 297 296 296 296 297 297 298
107 104 102 100 100 102 104 107 109 111 114 118 120 122 122 121 120 118 115 113 111 111 112 111 110 108 102 95 90 85 80 76 71 63 54 44 35 28 21 9 355 352 4 28 2 349 345 343 341 339 336 332 327 322 318 315 311 308 304 301 299 297 295 293 292 290 289 289 290
103 99 98 99 102 104 106 109 112 115 118 121 123 123 122 121 120 118 117 115 114 112 110 108 106 103 98 92 87 82 79 75 70 64 55 44 34 29 23 16 9 15 27 20 356 345 342 343 343 343 341 337 331 326 322 318 314 310 305 301 298 295 293 291 289 286 284 282 281
98 97 99 103 105 107 109 113 116 120 122 124 124 123 121 120 119 118 117 116 114 110 106 102 100 98 95 90 85 82 80 76 72 65 56 46 36 29 24 19 21 30 27 0 346 343 343 345 347 347 346 340 334 328 323 319 314 309 305 299 295 291 287 285 283 282 281 279 277
99 101 104 107 108 111 114 118 121 123 124 123 122 120 118 116 116 115 115 113 110 106 102 99 97 97 95 90 85 83 82 78 72 65 55 45 36 29 23 21 35 51 47 16 359 354 353 353 351 350 346 341 334 328 323 319 314 309 305 300 295 290 285 282 280 279 279 280 281
104 106 109 110 113 116 119 121 123 123 122 120 118 115 113 112 111 111 112 111 109 106 104 102 101 100 98 93 88 85 82 77 71 63 54 44 37 28 24 29 50 55 40 20 10 4 1 358 355 352 347 340 333 326 320 316 311 307 303 299 296 292 288 285 282 280 281 283 284
109 111 113 115 117 120 122 122 122 121 119 117 114 112 110 108 108 108 110 111 111 110 108 106 104 101 98 94 89 84 79 74 68 61 54 46 39 32 32 39 53 47 29 17 12 8 5 1 356 351 345 339 331 323 317 311 306 301 296 293 291 290 287 284 280 279 278 278 279
114 116 117 118 120 121 121 120 119 117 115 113 112 111 109 108 108 109 110 112 112 111 108 105 102 99 95 90 85 81 77 73 68 60 53 47 41 37 38 46 46 34 23 16 12 8 5 1 357 351 344 337 330 323 316 309 301 294 289 286 286 285 284 282 279 277 276 275 276
117 118 119 120 120 119 118 116 114 112 111 111 110 110 110 110 111 111 112 113 113 110 107 103 99 95 90 85 82 79 77 74 68 60 53 47 41 39 41 44 36 25 19 15 12 8 5 2 357 350 343 338 334 328 319 309 300 292 288 286 286 287 287 287 287 286 286 285 283
119 119 119 118 117 115 113 111 110 109 109 109 109 110 110 111 111 112 113 112 110 108 104 100 96 91 86 83 81 81 79 75 69 61 53 47 42 39 39 39 31 23 18 15 12 10 7 3 357 350 345 342 339 333 322 311 303 298 295 294 295 296 298 299 301 303 304 305 303
119 118 117 115 113 111 110 109 109 109 109 110 111 111 110 110 111 111 111 110 108 105 102 98 94 90 87 84 84 85 83 76 68 59 52 46 42 39 38 38 32 25 21 18 14 11 8 2 355 350 346 345 341 334 324 316 310 307 305 305 306 308 310 312 314 317 319 320 319
119 117 114 112 111 110 110 110 110 111 112 114 113 112 110 110 110 111 111 111 109 105 101 98 95 91 88 85 83 83 81 74 65 56 50 45 41 39 38 37 34 28 23 19 14 11 7 1 355 352 349 347 342 335 328 321 316 314 313 314 317 320 323 325 326 327 326 325 323
117 115 113 112 111 111 112 113 115 116 117 115 113 111 110 109 110 111 112 112 109 105 101 98 94 90 87 84 80 78 76 70 61 54 49 45 41 37 35 33 31 26 21 17 13 10 6 1 357 354 352 349 344 339 333 327 323 321 322 324 329 332 335 336 335 333 331 328 325
116 114 113 113 113 114 116 117 118 118 116 113 111 110 109 109 110 111 112 111 108 104 100 96 93 90 87 83 80 77 73 65 58 52 48 44 41 38 33 30 29 24 18 15 12 10 6 2 359 357 355 352 348 343 338 334 330 330 331 335 338 340 340 339 339 339 338 335 332
115 114 114 114 115 116 118 118 118 116 113 111 110 109 109 109 109 109 110 109 106 103 100 97 95 92 89 85 82 79 74 65 56 50 47 45 44 41 35 30 27 22 18 15 12 9 6 4 2 1 359 357 353 348 344 340 338 338 340 342 342 341 340 342 344 346 345 345 346
114 114 114 115 116 117 117 116 114 113 112 111 110 109 108 107 107 107 107 106 104 103 102 101 99 95 90 85 82 80 76 69 59 54 52 52 49 46 40 33 27 22 18 15 12 10 8 7 6 5 4 3 359 354 350 346 344 344 346 345 343 341 342 347 350 350 352 356 1
114 114 115 115 115 115 114 112 111 111 111 110 110 110 109 108 108 108 106 105 104 103 103 102 99 94 89 84 81 81 79 75 66 60 58 58 54 49 43 36 28 23 19 16 14 12 11 10 10 9 8 8 5 0 356 352 350 349 349 347 344 342 344 349 352 354 359 8 12
115 114 114 113 113 113 112 111 110 110 110 110 109 110 110 110 110 109 107 105 103 102 100 99 96 92 87 83 82 82 83 85 78 70 65 61 55 49 43 36 30 25 22 19 16 14 14 13 12 12 12 12 10 6 2 358 355 352 349 346 345 345 345 347 353 0 9 16 17
Height
688 691 693 695 697 699 701 704 707 709 711 713 716 720 723 727 730 734 737 739 741 743 745 746 749 751 753 755 756 758 759 761 762 764 765 766 768 769 770 770 771 772 772 772 773 773 773 774 774 775 775 775 775 776 776 776 776 776 777 777 777 777 777 776 776 776 776 776 776
688 690 693 695 696 698 701 705 708 710 712 714 716 719 723 726 730 733 736 738 740 741 743 745 748 750 752 754 756 758 760 761 762 763 765 766 768 769 770 771 771 771 772 772 772 772 773 773 774 774 775 775 775 775 775 775 776 776 776 776 776 776 776 775 775 775 775 775 775
687 690 693 695 696 699 701 705 708 710 712 714 716 719 723 726 729 731 734 736 738 740 741 744 747 750 752 755 757 759 760 761 762 764 765 767 769 770 770 771 771 771 771 771 772 772 772 773 773 774 774 774 775 775 775 775 775 775 775 775 775 775 775 775 775 775 775 775 775
687 690 693 695 697 700 702 705 707 709 711 714 717 720 723 725 728 730 732 734 736 738 741 744 747 750 753 755 757 759 760 761 762 764 766 768 769 770 770 770 771 771 771 771 772 772 772 773 773 773 774 774 774 774 775 775 775 775 775 775 775 775 774 774 774 774 774 774 774
688 691 694 696 698 701 703 705 706 708 710 713 717 720 722 724 725 728 730 733 735 738 741 745 748 751 754 756 758 759 760 761 763 765 767 768 769 770 770 770 770 770 771 771 771 772 772 772 772 773 773 773 774 774 774 774 774 774 774 774 774 774 774 774 773 773 773 773 773
689 692 694 697 699 702 704 705 706 708 711 714 716 718 720 722 724 727 730 733 736 739 742 745 749 751 754 756 758 759 760 762 764 766 767 768 769 769 769 769 770 770 770 770 771 771 771 771 772 772 772 773 773 773 773 773 773 773 773 773 773 773 773 773 773 773 773 773 773
689 692 695 697 700 703 705 706 707 709 711 714 715 716 718 721 724 727 730 733 736 740 743 746 749 752 754 756 757 759 760 763 765 766 767 768 768 768 768 768 769 769 769 770 770 770 770 771 771 771 772 772 772 772 772 772 772 772 772 772 772 772 772 772 772 772 772 772 772
690 693 695 698 701 704 706 707 708 710 711 712 713 715 718 721 725 728 731 734 737 741 744 747 749 751 753 755 757 759 762 764 765 766 766 766 766 767 767 767 767 768 768 769 769 770 770 770 770 771 771 771 772 772 772 772 772 772 771 771 771 771 771 771 771 771 771 771 771
691 694 697 700 704 707 708 709 709 709 709 710 713 716 719 723 726 729 732 735 738 741 744 746 748 750 752 755 758 760 762 763 764 765 765 765 765 765 766 766 766 767 767 768 769 769 769 770 770 770 771 771 771 771 771 771 771 771 771 771 770 770 770 770 770 770 770 770 770
693 696 699 703 706 708 709 709 708 707 708 710 714 717 720 724 727 730 732 735 738 741 743 745 748 750 753 756 759 760 762 763 763 764 764 765 765 765 765 765 766 766 767 767 768 769 769 770 770 770 770 770 770 770 770 770 770 770 770 770 770 770 770 770 770 770 770 770 770
695 698 702 706 708 708 707 707 706 707 709 712 715 718 721 724 727 730 732 735 737 740 743 746 749 752 755 758 759 760 762 762 763 764 764 765 765 765 765 765 765 766 766 767 768 768 769 769 770 770 770 770 770 770 770 770 770 770 769 769 769 769 769 769 769 769 769 769 769
698 702 705 707 707 706 705 705 706 708 710 713 716 719 721 724 727 729 731 734 737 740 745 748 752 755 757 759 760 761 762 763 764 764 764 764 764 764 764 764 764 765 766 766 767 768 769 769 769 769 769 769 769 769 769 769 769 769 769 769 768 768 768 768 768 768 768 768 769
701 705 707 707 706 704 703 704 706 709 711 714 716 719 721 724 726 729 731 734 739 743 747 751 754 756 758 759 760 761 762 763 763 763 763 763 763 763 763 763 763 764 765 766 767 768 768 768 768 768 768 768 769 769 769 769 768 768 768 768 768 767 767 767 767 768 768 768 768
705 707 708 706 703 702 702 704 707 709 712 714 716 719 721 724 726 729 732 737 742 746 750 753 755 757 758 759 760 761 762 762 762 762 762 762 762 762 762 762 763 764 765 766 767 767 767 768 768 768 768 768 768 768 768 767 767 767 767 767 767 766 766 766 766 767 767 767 767
708 708 706 703 701 700 701 704 707 710 712 714 717 720 722 724 727 730 735 740 745 749 752 754 755 757 758 759 760 760 761 761 761 761 761 761 761 761 761 762 763 764 765 766 767 767 767 767 767 767 767 767 766 766 766 766 766 766 766 765 765 765 765 765 765 765 765 765 766
708 707 703 700 699 699 701 704 708 711 713 716 719 721 722 724 728 734 739 744 747 750 753 754 755 757 758 759 759 760 760 760 760 760 760 760 760 761 762 762 763 764 765 766 766 766 766 766 766 766 766 766 765 765 765 765 765 765 765 765 764 764 764 764 764 764 764 764 764
706 703 700 699 698 700 703 706 710 713 715 718 720 721 722 726 731 737 742 746 749 751 753 755 756 757 758 758 759 759 759 759 760 760 760 760 761 761 762 763 764 764 765 765 765 765 765 765 765 765 765 765 765 765 765 764 764 764 764 764 763 763 763 763 763 763 763 763 763
703 701 700 700 700 703 705 709 712 715 717 719 720 721 724 730 735 740 745 748 750 752 754 755 756 757 757 758 758 758 759 759 760 760 760 760 761 761 762 763 763 764 764 764 764 764 764 764 764 764 764 764 764 764 764 764 764 763 763 763 762 762 762 761 761 761 761 762 762
701 701 701 702 704 706 708 711 713 716 717 718 719 723 728 734 739 743 746 749 751 753 754 755 755 756 756 757 757 758 759 759 760 760 760 760 761 761 762 762 763 763 763 763 763 763 763 764 764 764 764 764 764 764 763 763 763 762 762 761 761 761 761 760 760 760 760 760 761
701 702 703 704 706 708 710 712 714 715 717 718 722 727 733 737 741 745 747 750 752 753 754 755 755 755 756 757 757 758 759 759 760 760 760 760 761 761 761 762 762 762 762 762 763 763 763 763 763 763 763 763 763 763 763 762 762 761 761 760 760 760 760 760 759 759 759 760 759
703 704 705 706 707 709 710 713 714 715 718 721 726 731 736 740 744 746 749 750 752 753 753 754 755 755 756 757 757 758 759 759 759 760 760 760 760 760 761 761 761 761 762 762 762 763 763 763 763 763 762 762 762 762 762 761 761 760 760 760 759 759 758 758 758 758 758 758 758
705 706 707 707 708 709 711 713 715 717 721 725 730 735 739 742 745 748 750 751 752 752 753 754 754 755 756 757 757 758 758 759 759 759 759 760 760 760 760 760 761 761 762 762 762 763 763 763 762 762 762 762 762 761 761 761 760 760 759 759 758 758 757 757 757 757 757 757 756
707 708 708 708 708 710 712 714 717 720 725 730 734 738 741 744 746 748 749 750 751 752 752 753 755 755 756 757 757 758 758 758 759 759 759 759 760 760 760 760 761 761 762 762 762 762 762 762 762 762 762 762 761 761 760 760 760 759 759 758 757 757 756 756 756 756 756 756 756
708 708 708 708 709 710 713 716 720 725 729 733 736 740 743 745 747 748 749 750 750 751 752 754 755 755 756 756 757 757 758 758 758 759 759 760 760 760 760 761 761 761 762 762 762 762 762 762 762 762 761 761 760 760 760 759 759 758 758 757 756 756 756 755 755 755 755 755 755
708 707 706 707 709 712 716 720 724 728 732 735 739 741 744 745 746 747 748 749 750 751 752 753 754 755 755 756 756 757 757 758 758 759 760 760 760 760 761 761 761 761 762 761 761 761 761 761 761 761 760 760 760 759 758 758 757 757 756 756 755 755 755 755 755 755 755 755 755
705 705 705 708 712 716 720 724 727 731 735 738 740 742 744 745 746 747 748 749 750 751 752 753 753 754 755 756 756 757 758 758 759 759 760 760 761 761 761 761 761 761 761 761 761 761 761 760 760 760 759 759 759 758 757 757 756 756 756 755 755 755 754 754 754 754 754 754 754
703 705 708 712 716 720 724 727 730 734 737 739 741 742 743 744 745 746 747 748 750 750 751 752 753 754 755 756 756 757 758 759 759 760 760 761 761 761 761 761 761 761 761 761 760 760 760 760 759 759 759 758 758 757 757 756 756 755 755 755 754 754 754 754 753 753 753 753 753
705 709 713 716 720 724 727 730 733 736 738 739 740 741 742 743 744 745 746 748 749 750 751 752 753 754 755 756 757 758 759 759 760 760 760 761 761 761 761 761 761 760 760 760 760 760 759 759 758 758 758 757 757 756 756 756 755 755 755 754 754 753 753 753 753 753 753 752 752
710 713 717 720 723 726 730 732 735 736 738 739 739 740 741 742 744 745 746 747 749 750 751 753 754 755 756 757 758 758 759 760 760 760 760 760 760 761 761 761 760 760 760 760 759 759 759 758 758 757 757 757 756 756 756 755 755 755 754 754 753 753 753 753 752 752 752 752 751
714 717 720 723 726 729 731 733 735 735 736 737 738 739 740 742 743 745 746 748 750 751 752 753 755 755 756 757 758 759 759 760 760 760 760 760 760 760 760 760 760 760 759 759 759 758 758 757 757 757 756 756 756 755 755 755 755 754 754 753 753 753 753 752 752 751 751 750 750
717 720 722 725 728 730 731 733 734 735 735 736 738 739 740 742 744 745 747 749 750 752 753 754 755 756 757 758 758 759 759 760 760 760 760 760 760 760 760 760 760 759 759 759 758 758 757 757 757 756 756 756 755 755 755 754 754 754 753 753 753 752 752 751 750 750 749 749 749
720 722 724 726 728 730 731 732 733 734 735 736 738 739 741 743 745 746 748 750 751 752 753 754 755 756 757 758 758 759 760 760 760 760 760 760 760 760 760 760 759 759 759 758 758 758 757 757 757 756 756 755 755 755 754 754 754 753 753 752 752 751 750 750 749 749 748 748 747
721 723 725 726 727 729 730 731 732 734 735 737 739 740 742 744 746 747 749 750 751 752 754 755 756 757 757 758 759 759 760 760 760 760 760 760 760 760 760 760 759 759 759 758 758 758 757 757 757 756 756 755 755 754 754 754 753 753 752 752 751 750 750 749 748 747 747 746 746
722 723 725 725 727 728 730 731 733 734 736 738 740 741 743 745 746 748 749 750 752 753 754 755 756 757 758 758 759 759 760 760 760 760 760 760 760 760 760 760 760 759 759 759 758 758 758 757 757 756 756 755 755 755 754 754 753 752 752 751 750 749 749 748 747 747 746 745 745
722 723 724 725 727 728 730 732 734 735 737 739 740 742 744 745 747 748 750 751 752 753 755 755 756 757 758 759 759 760 760 760 760 760 760 760 760 760 760 760 760 760 759 759 759 758 758 758 757 756 756 755 755 755 754 754 753 752 751 750 749 748 747 747 746 746 745 745 745
722 723 725 726 728 729 731 733 735 736 738 740 741 743 745 746 747 749 750 751 752 754 755 756 757 758 758 759 759 760 760 760 760 760 760 760 760 760 760 761 760 760 760 759 759 759 758 758 757 757 756 755 755 754 754 753 752 751 750 749 748 747 747 746 745 745 745 744 744
723 724 725 726 728 730 732 734 735 737 739 740 742 743 745 746 748 749 750 752 753 754 755 756 757 758 759 759 759 760 760 760 760 760 760 760 760 761 761 761 761 761 760 760 760 759 759 758 758 757 756 755 754 754 753 752 751 750 749 749 748 747 746 745 745 744 744 743 743
724 725 726 727 729 731 733 735 736 738 739 741 742 744 745 747 748 750 751 752 753 754 755 757 758 758 759 759 759 760 760 760 760 760 760 761 761 761 762 762 762 761 761 761 760 760 759 759 758 757 756 755 754 752 752 751 750 750 749 748 747 746 745 745 744 744 743 743 742
725 726 727 729 730 732 734 735 737 738 740 741 743 745 746 748 749 750 751 753 754 755 756 757 758 758 759 759 759 759 760 760 760 761 761 762 762 762 763 763 762 762 762 761 761 760 760 759 757 756 755 754 753 752 751 750 750 749 749 748 747 746 745 744 743 743 743 742 742
725 727 728 730 731 733 734 736 737 739 740 742 744 745 747 748 750 751 752 753 754 755 756 757 758 758 759 759 759 760 760 761 761 762 762 763 763 763 763 763 763 763 762 762 761 760 759 758 756 755 754 753 752 751 750 750 750 749 748 747 746 745 744 743 743 742 742 742 742
726 728 729 731 732 734 735 737 738 740 742 743 745 746 747 749 750 751 753 754 755 755 756 757 757 758 758 759 760 760 761 762 762 763 764 764 764 764 764 764 763 763 762 761 760 759 758 757 756 755 753 752 751 751 750 750 749 749 748 747 746 745 744 743 742 742 742 742 742